date,time,SUV Intensity [MED/Hr],UV Index,Daily total [MED],Since Last [MED]
04/06/2023,00:02:33,0.000,0.0,0.0,0.0
04/06/2023,00:03:33,-0.000,0.0,0.0,0.0
04/06/2023,00:04:33,0.000,0.0,0.0,0.0
04/06/2023,00:05:33,0.000,0.0,0.0,0.0
04/06/2023,00:06:33,0.001,0.0,0.0,0.0
04/06/2023,00:07:33,0.000,0.0,0.0,0.0
04/06/2023,00:08:33,-0.000,0.0,0.0,0.0
04/06/2023,00:09:33,0.000,0.0,0.0,0.0
04/06/2023,00:10:33,0.000,0.0,0.0,0.0
04/06/2023,00:11:34,0.000,0.0,0.0,0.0
04/06/2023,00:12:33,-0.000,0.0,0.0,0.0
04/06/2023,00:13:34,-0.001,0.0,0.0,0.0
04/06/2023,00:14:33,0.000,0.0,0.0,0.0
04/06/2023,00:15:33,0.000,0.0,0.0,0.0
04/06/2023,00:16:34,0.000,0.0,0.0,0.0
04/06/2023,00:17:33,0.001,0.0,0.0,0.0
04/06/2023,00:18:34,0.000,0.0,0.0,0.0
04/06/2023,00:19:33,0.000,0.0,0.0,0.0
04/06/2023,00:20:33,0.001,0.0,0.0,0.0
04/06/2023,00:21:34,0.001,0.0,0.0,0.0
04/06/2023,00:22:33,-0.001,0.0,0.0,0.0
04/06/2023,00:23:34,-0.000,0.0,0.0,0.0
04/06/2023,00:24:33,0.000,0.0,0.0,0.0
04/06/2023,00:25:33,0.001,0.0,0.0,0.0
04/06/2023,00:26:33,-0.000,0.0,0.0,0.0
04/06/2023,00:27:33,0.000,0.0,0.0,0.0
04/06/2023,00:28:33,0.000,0.0,0.0,0.0
04/06/2023,00:29:34,-0.001,0.0,0.0,0.0
04/06/2023,00:30:34,0.001,0.0,0.0,0.0
04/06/2023,00:31:33,0.001,0.0,0.0,0.0
04/06/2023,00:32:33,-0.000,0.0,0.0,0.0
04/06/2023,00:33:34,-0.000,0.0,0.0,0.0
04/06/2023,00:34:33,0.000,0.0,0.0,0.0
04/06/2023,00:35:33,-0.001,0.0,0.0,0.0
04/06/2023,00:36:33,-0.001,0.0,0.0,0.0
04/06/2023,00:37:33,0.001,0.0,0.0,0.0
04/06/2023,00:38:33,0.002,0.0,0.0,0.0
04/06/2023,00:39:33,-0.000,0.0,0.0,0.0
04/06/2023,00:40:33,-0.000,0.0,0.0,0.0
04/06/2023,00:41:33,0.001,0.0,0.0,0.0
04/06/2023,00:42:33,-0.001,0.0,0.0,0.0
04/06/2023,00:43:33,0.000,0.0,0.0,0.0
04/06/2023,00:44:34,0.001,0.0,0.0,0.0
04/06/2023,00:45:33,0.000,0.0,0.0,0.0
04/06/2023,00:46:33,0.000,0.0,0.0,0.0
04/06/2023,00:47:34,0.001,0.0,0.0,0.0
04/06/2023,00:48:33,0.001,0.0,0.0,0.0
04/06/2023,00:49:34,0.000,0.0,0.0,0.0
04/06/2023,00:50:34,-0.000,0.0,0.0,0.0
04/06/2023,00:51:33,0.000,0.0,0.0,0.0
04/06/2023,00:52:33,0.000,0.0,0.0,0.0
04/06/2023,00:53:34,0.000,0.0,0.0,0.0
04/06/2023,00:54:34,0.000,0.0,0.0,0.0
04/06/2023,00:55:33,-0.000,0.0,0.0,0.0
04/06/2023,00:56:34,0.001,0.0,0.0,0.0
04/06/2023,00:57:34,0.000,0.0,0.0,0.0
04/06/2023,00:58:34,0.000,0.0,0.0,0.0
04/06/2023,00:59:34,0.000,0.0,0.0,0.0
04/06/2023,01:00:33,0.001,0.0,0.0,0.0
04/06/2023,01:01:34,0.000,0.0,0.0,0.0
04/06/2023,01:02:33,0.000,0.0,0.0,0.0
04/06/2023,01:03:34,0.001,0.0,0.0,0.0
04/06/2023,01:04:34,0.001,0.0,0.0,0.0
04/06/2023,01:05:33,0.000,0.0,0.0,0.0
04/06/2023,01:06:33,0.000,0.0,0.0,0.0
04/06/2023,01:07:33,0.000,0.0,0.0,0.0
04/06/2023,01:08:34,-0.001,0.0,0.0,0.0
04/06/2023,01:09:34,0.001,0.0,0.0,0.0
04/06/2023,01:10:33,0.000,0.0,0.0,0.0
04/06/2023,01:11:34,0.000,0.0,0.0,0.0
04/06/2023,01:12:33,-0.000,0.0,0.0,0.0
04/06/2023,01:13:33,0.000,0.0,0.0,0.0
04/06/2023,01:14:34,0.000,0.0,0.0,0.0
04/06/2023,01:15:33,0.001,0.0,0.0,0.0
04/06/2023,01:16:34,0.000,0.0,0.0,0.0
04/06/2023,01:17:33,0.001,0.0,0.0,0.0
04/06/2023,01:18:33,0.000,0.0,0.0,0.0
04/06/2023,01:19:33,0.001,0.0,0.0,0.0
04/06/2023,01:20:34,-0.001,0.0,0.0,0.0
04/06/2023,01:21:33,0.001,0.0,0.0,0.0
04/06/2023,01:22:33,0.000,0.0,0.0,0.0
04/06/2023,01:23:34,0.001,0.0,0.0,0.0
04/06/2023,01:24:33,-0.000,0.0,0.0,0.0
04/06/2023,01:25:33,0.002,0.0,0.0,0.0
04/06/2023,01:26:34,0.000,0.0,0.0,0.0
04/06/2023,01:27:33,0.001,0.0,0.0,0.0
04/06/2023,01:28:33,-0.000,0.0,0.0,0.0
04/06/2023,01:29:33,0.001,0.0,0.0,0.0
04/06/2023,01:30:33,0.000,0.0,0.0,0.0
04/06/2023,01:31:34,0.000,0.0,0.0,0.0
04/06/2023,01:32:34,0.001,0.0,0.0,0.0
04/06/2023,01:33:33,0.001,0.0,0.0,0.0
04/06/2023,01:34:34,0.001,0.0,0.0,0.0
04/06/2023,01:35:33,0.001,0.0,0.0,0.0
04/06/2023,01:36:33,0.001,0.0,0.0,0.0
04/06/2023,01:37:33,-0.000,0.0,0.0,0.0
04/06/2023,01:38:34,0.001,0.0,0.0,0.0
04/06/2023,01:39:34,0.000,0.0,0.0,0.0
04/06/2023,01:40:34,0.001,0.0,0.0,0.0
04/06/2023,01:41:34,0.000,0.0,0.0,0.0
04/06/2023,01:42:34,0.002,0.0,0.0,0.0
04/06/2023,01:43:34,0.000,0.0,0.0,0.0
04/06/2023,01:44:33,-0.000,0.0,0.0,0.0
04/06/2023,01:45:33,-0.000,0.0,0.0,0.0
04/06/2023,01:46:33,0.000,0.0,0.0,0.0
04/06/2023,01:47:34,0.000,0.0,0.0,0.0
04/06/2023,01:48:33,-0.000,0.0,0.0,0.0
04/06/2023,01:49:34,0.001,0.0,0.0,0.0
04/06/2023,01:50:34,0.000,0.0,0.0,0.0
04/06/2023,01:51:33,0.000,0.0,0.0,0.0
04/06/2023,01:52:33,0.000,0.0,0.0,0.0
04/06/2023,01:53:33,0.001,0.0,0.0,0.0
04/06/2023,01:54:34,-0.000,0.0,0.0,0.0
04/06/2023,01:55:33,0.000,0.0,0.0,0.0
04/06/2023,01:56:34,0.001,0.0,0.0,0.0
04/06/2023,01:57:33,0.001,0.0,0.0,0.0
04/06/2023,01:58:34,0.001,0.0,0.0,0.0
04/06/2023,01:59:33,0.001,0.0,0.0,0.0
04/06/2023,02:00:34,0.001,0.0,0.0,0.0
04/06/2023,02:01:34,0.001,0.0,0.0,0.0
04/06/2023,02:02:33,-0.000,0.0,0.0,0.0
04/06/2023,02:03:34,0.000,0.0,0.0,0.0
04/06/2023,02:04:34,0.000,0.0,0.0,0.0
04/06/2023,02:05:33,0.001,0.0,0.0,0.0
04/06/2023,02:06:34,0.000,0.0,0.0,0.0
04/06/2023,02:07:33,-0.000,0.0,0.0,0.0
04/06/2023,02:08:34,0.001,0.0,0.0,0.0
04/06/2023,02:09:34,0.000,0.0,0.0,0.0
04/06/2023,02:10:33,0.000,0.0,0.0,0.0
04/06/2023,02:11:34,0.000,0.0,0.0,0.0
04/06/2023,02:12:34,0.001,0.0,0.0,0.0
04/06/2023,02:13:33,0.000,0.0,0.0,0.0
04/06/2023,02:14:34,-0.000,0.0,0.0,0.0
04/06/2023,02:15:33,-0.001,0.0,0.0,0.0
04/06/2023,02:16:33,0.001,0.0,0.0,0.0
04/06/2023,02:17:34,0.001,0.0,0.0,0.0
04/06/2023,02:18:33,0.001,0.0,0.0,0.0
04/06/2023,02:19:33,-0.001,0.0,0.0,0.0
04/06/2023,02:20:34,0.000,0.0,0.0,0.0
04/06/2023,02:21:34,0.001,0.0,0.0,0.0
04/06/2023,02:22:33,0.000,0.0,0.0,0.0
04/06/2023,02:23:36,-0.000,0.0,0.0,0.0
04/06/2023,02:24:33,0.000,0.0,0.0,0.0
04/06/2023,02:25:34,0.001,0.0,0.0,0.0
04/06/2023,02:26:33,0.000,0.0,0.0,0.0
04/06/2023,02:27:34,0.000,0.0,0.0,0.0
04/06/2023,02:28:33,0.000,0.0,0.0,0.0
04/06/2023,02:29:34,0.001,0.0,0.0,0.0
04/06/2023,02:30:34,0.000,0.0,0.0,0.0
04/06/2023,02:31:33,-0.001,0.0,0.0,0.0
04/06/2023,02:32:33,-0.000,0.0,0.0,0.0
04/06/2023,02:33:34,0.000,0.0,0.0,0.0
04/06/2023,02:34:34,0.000,0.0,0.0,0.0
04/06/2023,02:35:33,-0.000,0.0,0.0,0.0
04/06/2023,02:36:33,-0.001,0.0,0.0,0.0
04/06/2023,02:37:33,-0.001,0.0,0.0,0.0
04/06/2023,02:38:34,0.000,0.0,0.0,0.0
04/06/2023,02:39:34,-0.000,0.0,0.0,0.0
04/06/2023,02:40:33,-0.000,0.0,0.0,0.0
04/06/2023,02:41:34,0.000,0.0,0.0,0.0
04/06/2023,02:42:34,-0.001,0.0,0.0,0.0
04/06/2023,02:43:33,0.000,0.0,0.0,0.0
04/06/2023,02:44:33,0.000,0.0,0.0,0.0
04/06/2023,02:45:33,0.000,0.0,0.0,0.0
04/06/2023,02:46:34,0.001,0.0,0.0,0.0
04/06/2023,02:47:34,0.000,0.0,0.0,0.0
04/06/2023,02:48:34,0.000,0.0,0.0,0.0
04/06/2023,02:49:33,0.000,0.0,0.0,0.0
04/06/2023,02:50:33,-0.000,0.0,0.0,0.0
04/06/2023,02:51:33,0.001,0.0,0.0,0.0
04/06/2023,02:52:33,0.000,0.0,0.0,0.0
04/06/2023,02:53:34,0.001,0.0,0.0,0.0
04/06/2023,02:54:34,0.000,0.0,0.0,0.0
04/06/2023,02:55:34,0.001,0.0,0.0,0.0
04/06/2023,02:56:33,0.001,0.0,0.0,0.0
04/06/2023,02:57:34,0.001,0.0,0.0,0.0
04/06/2023,02:58:34,0.000,0.0,0.0,0.0
04/06/2023,02:59:34,-0.000,0.0,0.0,0.0
04/06/2023,03:00:33,0.001,0.0,0.0,0.0
04/06/2023,03:01:34,0.000,0.0,0.0,0.0
04/06/2023,03:02:34,0.001,0.0,0.0,0.0
04/06/2023,03:03:33,0.000,0.0,0.0,0.0
04/06/2023,03:04:34,0.000,0.0,0.0,0.0
04/06/2023,03:05:33,0.000,0.0,0.0,0.0
04/06/2023,03:06:34,0.000,0.0,0.0,0.0
04/06/2023,03:07:34,0.000,0.0,0.0,0.0
04/06/2023,03:08:33,0.000,0.0,0.0,0.0
04/06/2023,03:09:34,0.000,0.0,0.0,0.0
04/06/2023,03:10:34,-0.000,0.0,0.0,0.0
04/06/2023,03:11:33,-0.000,0.0,0.0,0.0
04/06/2023,03:12:33,0.001,0.0,0.0,0.0
04/06/2023,03:13:34,0.000,0.0,0.0,0.0
04/06/2023,03:14:34,0.000,0.0,0.0,0.0
04/06/2023,03:15:33,0.000,0.0,0.0,0.0
04/06/2023,03:16:34,0.000,0.0,0.0,0.0
04/06/2023,03:17:34,0.000,0.0,0.0,0.0
04/06/2023,03:18:33,0.000,0.0,0.0,0.0
04/06/2023,03:19:34,0.000,0.0,0.0,0.0
04/06/2023,03:20:33,-0.001,0.0,0.0,0.0
04/06/2023,03:21:34,0.000,0.0,0.0,0.0
04/06/2023,03:22:37,0.001,0.0,0.0,0.0
04/06/2023,03:23:34,-0.000,0.0,0.0,0.0
04/06/2023,03:24:34,0.000,0.0,0.0,0.0
04/06/2023,03:25:33,0.000,0.0,0.0,0.0
04/06/2023,03:26:34,0.000,0.0,0.0,0.0
04/06/2023,03:27:34,0.000,0.0,0.0,0.0
04/06/2023,03:28:34,0.001,0.0,0.0,0.0
04/06/2023,03:29:34,-0.000,0.0,0.0,0.0
04/06/2023,03:30:34,0.001,0.0,0.0,0.0
04/06/2023,03:31:34,-0.000,0.0,0.0,0.0
04/06/2023,03:32:34,0.002,0.0,0.0,0.0
04/06/2023,03:33:34,0.000,0.0,0.0,0.0
04/06/2023,03:34:34,0.001,0.0,0.0,0.0
04/06/2023,03:35:33,0.000,0.0,0.0,0.0
04/06/2023,03:36:34,0.001,0.0,0.0,0.0
04/06/2023,03:37:34,0.001,0.0,0.0,0.0
04/06/2023,03:38:33,0.001,0.0,0.0,0.0
04/06/2023,03:39:34,0.000,0.0,0.0,0.0
04/06/2023,03:40:34,0.001,0.0,0.0,0.0
04/06/2023,03:41:33,-0.001,0.0,0.0,0.0
04/06/2023,03:42:34,0.001,0.0,0.0,0.0
04/06/2023,03:43:34,0.002,0.0,0.0,0.0
04/06/2023,03:44:34,0.001,0.0,0.0,0.0
04/06/2023,03:45:33,0.001,0.0,0.0,0.0
04/06/2023,03:46:34,0.001,0.0,0.0,0.0
04/06/2023,03:47:33,0.001,0.0,0.0,0.0
04/06/2023,03:48:34,0.001,0.0,0.0,0.0
04/06/2023,03:49:33,0.001,0.0,0.0,0.0
04/06/2023,03:50:34,0.001,0.0,0.0,0.0
04/06/2023,03:51:34,0.001,0.0,0.0,0.0
04/06/2023,03:52:34,0.001,0.0,0.0,0.0
04/06/2023,03:53:34,0.002,0.0,0.0,0.0
04/06/2023,03:54:34,0.002,0.0,0.0,0.0
04/06/2023,03:55:34,0.002,0.0,0.0,0.0
04/06/2023,03:56:34,0.002,0.0,0.0,0.0
04/06/2023,03:57:33,0.002,0.0,0.0,0.0
04/06/2023,03:58:34,0.002,0.0,0.0,0.0
04/06/2023,03:59:34,0.002,0.0,0.0,0.0
04/06/2023,04:00:34,0.002,0.0,0.0,0.0
04/06/2023,04:01:34,0.003,0.0,0.0,0.0
04/06/2023,04:02:33,0.002,0.0,0.0,0.0
04/06/2023,04:03:34,0.003,0.0,0.0,0.0
04/06/2023,04:04:34,0.003,0.0,0.0,0.0
04/06/2023,04:05:34,0.003,0.0,0.0,0.0
04/06/2023,04:06:34,0.003,0.0,0.0,0.0
04/06/2023,04:07:34,0.003,0.0,0.0,0.0
04/06/2023,04:08:33,0.002,0.0,0.0,0.0
04/06/2023,04:09:34,0.003,0.0,0.0,0.0
04/06/2023,04:10:34,0.003,0.0,0.0,0.0
04/06/2023,04:11:34,0.003,0.0,0.0,0.0
04/06/2023,04:12:34,0.004,0.0,0.0,0.0
04/06/2023,04:13:34,0.004,0.0,0.0,0.0
04/06/2023,04:14:34,0.005,0.0,0.0,0.0
04/06/2023,04:15:34,0.003,0.0,0.0,0.0
04/06/2023,04:16:34,0.005,0.0,0.0,0.0
04/06/2023,04:17:34,0.005,0.0,0.0,0.0
04/06/2023,04:18:34,0.005,0.0,0.0,0.0
04/06/2023,04:19:33,0.005,0.0,0.0,0.0
04/06/2023,04:20:34,0.006,0.0,0.0,0.0
04/06/2023,04:21:34,0.005,0.0,0.0,0.0
04/06/2023,04:22:33,0.006,0.0,0.0,0.0
04/06/2023,04:23:34,0.006,0.0,0.0,0.0
04/06/2023,04:24:34,0.006,0.0,0.0,0.0
04/06/2023,04:25:34,0.005,0.0,0.0,0.0
04/06/2023,04:26:35,0.007,0.0,0.0,0.0
04/06/2023,04:27:33,0.007,0.0,0.0,0.0
04/06/2023,04:28:34,0.008,0.0,0.0,0.0
04/06/2023,04:29:34,0.009,0.0,0.001,0.001
04/06/2023,04:30:34,0.008,0.0,0.001,0.0
04/06/2023,04:31:33,0.007,0.0,0.001,0.0
04/06/2023,04:32:34,0.008,0.0,0.001,0.0
04/06/2023,04:33:34,0.007,0.0,0.001,0.0
04/06/2023,04:34:34,0.008,0.0,0.001,0.0
04/06/2023,04:35:33,0.008,0.0,0.001,0.0
04/06/2023,04:36:34,0.010,0.0,0.002,0.001
04/06/2023,04:37:34,0.009,0.0,0.002,0.0
04/06/2023,04:38:34,0.010,0.0,0.002,0.0
04/06/2023,04:39:34,0.011,0.0,0.002,0.0
04/06/2023,04:40:33,0.011,0.0,0.002,0.0
04/06/2023,04:41:34,0.011,0.0,0.002,0.0
04/06/2023,04:42:33,0.011,0.0,0.003,0.001
04/06/2023,04:43:33,0.011,0.0,0.003,0.0
04/06/2023,04:44:34,0.010,0.0,0.003,0.0
04/06/2023,04:45:33,0.012,0.0,0.003,0.0
04/06/2023,04:46:34,0.014,0.0,0.003,0.0
04/06/2023,04:47:34,0.014,0.0,0.004,0.001
04/06/2023,04:48:34,0.013,0.0,0.004,0.0
04/06/2023,04:49:33,0.014,0.0,0.004,0.0
04/06/2023,04:50:34,0.015,0.0,0.004,0.0
04/06/2023,04:51:34,0.015,0.0,0.004,0.0
04/06/2023,04:52:33,0.015,0.0,0.005,0.001
04/06/2023,04:53:34,0.016,0.0,0.005,0.0
04/06/2023,04:54:34,0.017,0.0,0.005,0.0
04/06/2023,04:55:34,0.018,0.0,0.006,0.001
04/06/2023,04:56:33,0.019,0.0,0.006,0.0
04/06/2023,04:57:34,0.018,0.0,0.006,0.0
04/06/2023,04:58:34,0.020,0.0,0.006,0.0
04/06/2023,04:59:34,0.020,0.0,0.007,0.001
04/06/2023,05:00:34,0.021,0.0,0.007,0.0
04/06/2023,05:01:34,0.021,0.0,0.007,0.0
04/06/2023,05:02:34,0.023,0.0,0.008,0.001
04/06/2023,05:03:34,0.021,0.0,0.008,0.0
04/06/2023,05:04:33,0.023,0.0,0.009,0.001
04/06/2023,05:05:34,0.024,0.0,0.009,0.0
04/06/2023,05:06:34,0.023,0.0,0.009,0.0
04/06/2023,05:07:34,0.023,0.0,0.01,0.001
04/06/2023,05:08:34,0.025,0.0,0.01,0.0
04/06/2023,05:09:33,0.026,0.0,0.011,0.001
04/06/2023,05:10:34,0.026,0.0,0.011,0.0
04/06/2023,05:11:33,0.024,0.0,0.011,0.0
04/06/2023,05:12:33,0.023,0.0,0.012,0.001
04/06/2023,05:13:33,0.026,0.0,0.012,0.0
04/06/2023,05:14:34,0.027,0.0,0.013,0.001
04/06/2023,05:15:33,0.029,0.0,0.013,0.0
04/06/2023,05:16:34,0.032,0.0,0.014,0.001
04/06/2023,05:17:34,0.031,0.0,0.014,0.0
04/06/2023,05:18:33,0.027,0.0,0.015,0.001
04/06/2023,05:19:34,0.031,0.0,0.015,0.0
04/06/2023,05:20:34,0.033,0.0,0.016,0.001
04/06/2023,05:21:34,0.034,0.0,0.016,0.0
04/06/2023,05:22:34,0.033,0.0,0.017,0.001
04/06/2023,05:23:34,0.035,0.0,0.017,0.0
04/06/2023,05:24:33,0.033,0.0,0.018,0.001
04/06/2023,05:25:34,0.036,0.0,0.018,0.0
04/06/2023,05:26:34,0.033,0.0,0.019,0.001
04/06/2023,05:27:33,0.035,0.0,0.02,0.001
04/06/2023,05:28:34,0.040,0.0,0.02,0.0
04/06/2023,05:29:34,0.040,0.0,0.021,0.001
04/06/2023,05:30:34,0.041,0.0,0.022,0.001
04/06/2023,05:31:34,0.039,0.0,0.022,0.0
04/06/2023,05:32:33,0.044,0.0,0.023,0.001
04/06/2023,05:33:34,0.042,0.0,0.024,0.001
04/06/2023,05:34:34,0.041,0.0,0.024,0.0
04/06/2023,05:35:33,0.052,0.0,0.025,0.001
04/06/2023,05:36:34,0.053,0.0,0.026,0.001
04/06/2023,05:37:34,0.045,0.0,0.027,0.001
04/06/2023,05:38:34,0.044,0.0,0.028,0.001
04/06/2023,05:39:34,0.044,0.0,0.028,0.0
04/06/2023,05:40:34,0.044,0.0,0.029,0.001
04/06/2023,05:41:34,0.047,0.0,0.03,0.001
04/06/2023,05:42:34,0.053,0.0,0.031,0.001
04/06/2023,05:43:34,0.050,0.0,0.031,0.0
04/06/2023,05:44:33,0.050,0.0,0.032,0.001
04/06/2023,05:45:34,0.053,0.0,0.033,0.001
04/06/2023,05:46:34,0.062,0.0,0.034,0.001
04/06/2023,05:47:34,0.068,0.0,0.035,0.001
04/06/2023,05:48:34,0.063,0.0,0.036,0.001
04/06/2023,05:49:34,0.066,0.0,0.037,0.001
04/06/2023,05:50:34,0.066,0.0,0.038,0.001
04/06/2023,05:51:33,0.070,0.0,0.04,0.002
04/06/2023,05:52:34,0.076,0.0,0.041,0.001
04/06/2023,05:53:33,0.073,0.0,0.042,0.001
04/06/2023,05:54:34,0.076,0.0,0.043,0.001
04/06/2023,05:55:35,0.071,0.0,0.045,0.002
04/06/2023,05:56:35,0.082,0.0,0.046,0.001
04/06/2023,05:57:33,0.081,0.0,0.047,0.001
04/06/2023,05:58:34,0.079,0.0,0.048,0.001
04/06/2023,05:59:34,0.079,0.0,0.05,0.002
04/06/2023,06:00:34,0.086,0.0,0.051,0.001
04/06/2023,06:01:34,0.085,0.0,0.053,0.002
04/06/2023,06:02:34,0.089,0.0,0.054,0.001
04/06/2023,06:03:34,0.094,0.0,0.056,0.002
04/06/2023,06:04:34,0.100,0.0,0.057,0.001
04/06/2023,06:05:34,0.099,0.0,0.059,0.002
04/06/2023,06:06:34,0.092,0.0,0.06,0.001
04/06/2023,06:07:33,0.102,0.0,0.062,0.002
04/06/2023,06:08:34,0.102,0.0,0.064,0.002
04/06/2023,06:09:34,0.099,0.0,0.065,0.001
04/06/2023,06:10:33,0.098,0.0,0.067,0.002
04/06/2023,06:11:35,0.103,0.0,0.069,0.002
04/06/2023,06:12:33,0.101,0.0,0.07,0.001
04/06/2023,06:13:34,0.113,0.0,0.072,0.002
04/06/2023,06:14:34,0.113,0.0,0.074,0.002
04/06/2023,06:15:34,0.110,0.0,0.076,0.002
04/06/2023,06:16:34,0.117,0.0,0.078,0.002
04/06/2023,06:17:34,0.122,0.0,0.08,0.002
04/06/2023,06:18:34,0.127,0.0,0.082,0.002
04/06/2023,06:19:34,0.128,0.0,0.084,0.002
04/06/2023,06:20:34,0.134,0.0,0.086,0.002
04/06/2023,06:21:33,0.140,0.0,0.089,0.003
04/06/2023,06:22:34,0.144,0.0,0.091,0.002
04/06/2023,06:23:34,0.152,0.0,0.093,0.002
04/06/2023,06:24:35,0.156,0.0,0.096,0.003
04/06/2023,06:25:34,0.162,0.0,0.099,0.003
04/06/2023,06:26:34,0.171,0.0,0.101,0.002
04/06/2023,06:27:34,0.173,0.0,0.104,0.003
04/06/2023,06:28:34,0.186,0.0,0.107,0.003
04/06/2023,06:29:33,0.191,0.0,0.11,0.003
04/06/2023,06:30:34,0.179,0.0,0.113,0.003
04/06/2023,06:31:34,0.181,0.0,0.116,0.003
04/06/2023,06:32:33,0.195,0.0,0.119,0.003
04/06/2023,06:33:34,0.198,0.0,0.123,0.004
04/06/2023,06:34:33,0.200,0.0,0.126,0.003
04/06/2023,06:35:34,0.205,0.0,0.129,0.003
04/06/2023,06:36:34,0.199,0.0,0.133,0.004
04/06/2023,06:37:34,0.211,0.0,0.136,0.003
04/06/2023,06:38:34,0.218,1.0,0.14,0.004
04/06/2023,06:39:34,0.210,0.0,0.143,0.003
04/06/2023,06:40:34,0.210,0.0,0.147,0.004
04/06/2023,06:41:33,0.229,1.0,0.15,0.003
04/06/2023,06:42:34,0.243,1.0,0.154,0.004
04/06/2023,06:43:34,0.244,1.0,0.158,0.004
04/06/2023,06:44:34,0.235,1.0,0.162,0.004
04/06/2023,06:45:33,0.257,1.0,0.167,0.005
04/06/2023,06:46:34,0.261,1.0,0.171,0.004
04/06/2023,06:47:34,0.265,1.0,0.175,0.004
04/06/2023,06:48:34,0.271,1.0,0.18,0.005
04/06/2023,06:49:34,0.274,1.0,0.184,0.004
04/06/2023,06:50:34,0.280,1.0,0.189,0.005
04/06/2023,06:51:34,0.284,1.0,0.194,0.005
04/06/2023,06:52:34,0.286,1.0,0.198,0.004
04/06/2023,06:53:34,0.293,1.0,0.203,0.005
04/06/2023,06:54:34,0.295,1.0,0.208,0.005
04/06/2023,06:55:34,0.299,1.0,0.213,0.005
04/06/2023,06:56:34,0.304,1.0,0.218,0.005
04/06/2023,06:57:35,0.294,1.0,0.223,0.005
04/06/2023,06:58:34,0.313,1.0,0.228,0.005
04/06/2023,06:59:34,0.319,1.0,0.233,0.005
04/06/2023,07:00:34,0.325,1.0,0.239,0.006
04/06/2023,07:01:34,0.329,1.0,0.244,0.005
04/06/2023,07:02:34,0.334,1.0,0.25,0.006
04/06/2023,07:03:34,0.337,1.0,0.255,0.005
04/06/2023,07:04:34,0.341,1.0,0.261,0.006
04/06/2023,07:05:34,0.311,1.0,0.267,0.006
04/06/2023,07:06:34,0.352,1.0,0.272,0.005
04/06/2023,07:07:34,0.357,1.0,0.278,0.006
04/06/2023,07:08:34,0.362,1.0,0.284,0.006
04/06/2023,07:09:34,0.368,1.0,0.29,0.006
04/06/2023,07:10:34,0.373,1.0,0.296,0.006
04/06/2023,07:11:34,0.378,1.0,0.303,0.007
04/06/2023,07:12:34,0.383,1.0,0.309,0.006
04/06/2023,07:13:34,0.389,1.0,0.316,0.007
04/06/2023,07:14:34,0.393,1.0,0.322,0.006
04/06/2023,07:15:34,0.398,1.0,0.329,0.007
04/06/2023,07:16:34,0.404,1.0,0.335,0.006
04/06/2023,07:17:34,0.410,1.0,0.342,0.007
04/06/2023,07:18:34,0.415,1.0,0.349,0.007
04/06/2023,07:19:34,0.419,1.0,0.356,0.007
04/06/2023,07:20:34,0.425,1.0,0.363,0.007
04/06/2023,07:21:34,0.430,1.0,0.37,0.007
04/06/2023,07:22:34,0.434,1.0,0.377,0.007
04/06/2023,07:23:34,0.440,1.0,0.385,0.008
04/06/2023,07:24:34,0.449,1.0,0.392,0.007
04/06/2023,07:25:34,0.453,1.0,0.399,0.007
04/06/2023,07:26:34,0.460,1.0,0.407,0.008
04/06/2023,07:27:34,0.464,1.0,0.415,0.008
04/06/2023,07:28:34,0.469,1.0,0.423,0.008
04/06/2023,07:29:34,0.478,1.0,0.431,0.008
04/06/2023,07:30:34,0.479,1.0,0.438,0.007
04/06/2023,07:31:34,0.486,1.0,0.447,0.009
04/06/2023,07:32:34,0.494,1.0,0.455,0.008
04/06/2023,07:33:35,0.496,1.0,0.463,0.008
04/06/2023,07:34:34,0.507,1.0,0.471,0.008
04/06/2023,07:35:35,0.514,1.0,0.48,0.009
04/06/2023,07:36:35,0.517,1.0,0.488,0.008
04/06/2023,07:37:34,0.449,1.0,0.497,0.009
04/06/2023,07:38:34,0.531,1.0,0.505,0.008
04/06/2023,07:39:34,0.535,1.0,0.514,0.009
04/06/2023,07:40:34,0.541,1.0,0.523,0.009
04/06/2023,07:41:34,0.549,1.0,0.532,0.009
04/06/2023,07:42:34,0.557,1.0,0.541,0.009
04/06/2023,07:43:34,0.564,1.0,0.551,0.01
04/06/2023,07:44:34,0.569,1.0,0.56,0.009
04/06/2023,07:45:35,0.577,1.0,0.57,0.01
04/06/2023,07:46:35,0.584,1.0,0.579,0.009
04/06/2023,07:47:34,0.589,1.0,0.589,0.01
04/06/2023,07:48:35,0.596,1.0,0.599,0.01
04/06/2023,07:49:34,0.601,1.0,0.609,0.01
04/06/2023,07:50:34,0.607,1.0,0.619,0.01
04/06/2023,07:51:34,0.614,1.0,0.629,0.01
04/06/2023,07:52:34,0.623,1.0,0.64,0.011
04/06/2023,07:53:34,0.630,1.0,0.65,0.01
04/06/2023,07:54:34,0.637,1.0,0.661,0.011
04/06/2023,07:55:34,0.643,1.0,0.671,0.01
04/06/2023,07:56:34,0.649,1.0,0.682,0.011
04/06/2023,07:57:34,0.658,2.0,0.693,0.011
04/06/2023,07:58:34,0.661,2.0,0.704,0.011
04/06/2023,07:59:34,0.668,2.0,0.715,0.011
04/06/2023,08:00:35,0.676,2.0,0.726,0.011
04/06/2023,08:01:35,0.685,2.0,0.738,0.012
04/06/2023,08:02:35,0.691,2.0,0.749,0.011
04/06/2023,08:03:34,0.698,2.0,0.761,0.012
04/06/2023,08:04:34,0.705,2.0,0.772,0.011
04/06/2023,08:05:34,0.713,2.0,0.784,0.012
04/06/2023,08:06:34,0.721,2.0,0.796,0.012
04/06/2023,08:07:34,0.727,2.0,0.808,0.012
04/06/2023,08:08:34,0.734,2.0,0.82,0.012
04/06/2023,08:09:34,0.740,2.0,0.833,0.013
04/06/2023,08:10:34,0.747,2.0,0.845,0.012
04/06/2023,08:11:34,0.753,2.0,0.857,0.012
04/06/2023,08:12:34,0.761,2.0,0.87,0.013
04/06/2023,08:13:34,0.767,2.0,0.883,0.013
04/06/2023,08:14:34,0.770,2.0,0.896,0.013
04/06/2023,08:15:34,0.778,2.0,0.909,0.013
04/06/2023,08:16:34,0.788,2.0,0.922,0.013
04/06/2023,08:17:35,0.797,2.0,0.935,0.013
04/06/2023,08:18:34,0.802,2.0,0.948,0.013
04/06/2023,08:19:34,0.809,2.0,0.962,0.014
04/06/2023,08:20:34,0.816,2.0,0.975,0.013
04/06/2023,08:21:34,0.824,2.0,0.989,0.014
04/06/2023,08:22:34,0.830,2.0,1.003,0.014
04/06/2023,08:23:34,0.836,2.0,1.017,0.014
04/06/2023,08:24:34,0.846,2.0,1.031,0.014
04/06/2023,08:25:35,0.851,2.0,1.045,0.014
04/06/2023,08:26:34,0.863,2.0,1.059,0.014
04/06/2023,08:27:34,0.870,2.0,1.073,0.014
04/06/2023,08:28:34,0.877,2.0,1.088,0.015
04/06/2023,08:29:35,0.886,2.0,1.103,0.015
04/06/2023,08:30:34,0.896,2.0,1.118,0.015
04/06/2023,08:31:34,0.903,2.0,1.133,0.015
04/06/2023,08:32:34,0.907,2.0,1.148,0.015
04/06/2023,08:33:35,0.915,2.0,1.163,0.015
04/06/2023,08:34:34,0.922,2.0,1.178,0.015
04/06/2023,08:35:34,0.934,2.0,1.194,0.016
04/06/2023,08:36:35,0.937,2.0,1.209,0.015
04/06/2023,08:37:34,0.944,2.0,1.225,0.016
04/06/2023,08:38:35,0.958,2.0,1.241,0.016
04/06/2023,08:39:34,0.967,2.0,1.257,0.016
04/06/2023,08:40:34,0.977,2.0,1.273,0.016
04/06/2023,08:41:34,0.982,2.0,1.289,0.016
04/06/2023,08:42:34,0.993,2.0,1.306,0.017
04/06/2023,08:43:35,0.997,2.0,1.323,0.017
04/06/2023,08:44:34,1.009,2.0,1.339,0.016
04/06/2023,08:45:35,1.022,2.0,1.356,0.017
04/06/2023,08:46:34,1.025,2.0,1.373,0.017
04/06/2023,08:47:34,1.035,2.0,1.39,0.017
04/06/2023,08:48:34,1.042,2.0,1.408,0.018
04/06/2023,08:49:34,1.049,2.0,1.425,0.017
04/06/2023,08:50:34,1.059,2.0,1.443,0.018
04/06/2023,08:51:34,1.060,2.0,1.46,0.017
04/06/2023,08:52:34,1.064,2.0,1.478,0.018
04/06/2023,08:53:34,1.077,2.0,1.496,0.018
04/06/2023,08:54:34,1.089,3.0,1.514,0.018
04/06/2023,08:55:34,1.098,3.0,1.532,0.018
04/06/2023,08:56:34,1.103,3.0,1.551,0.019
04/06/2023,08:57:35,1.115,3.0,1.569,0.018
04/06/2023,08:58:34,1.121,3.0,1.588,0.019
04/06/2023,08:59:34,1.132,3.0,1.606,0.018
04/06/2023,09:00:34,1.138,3.0,1.625,0.019
04/06/2023,09:01:34,1.142,3.0,1.644,0.019
04/06/2023,09:02:34,1.153,3.0,1.663,0.019
04/06/2023,09:03:34,1.158,3.0,1.683,0.02
04/06/2023,09:04:34,1.166,3.0,1.702,0.019
04/06/2023,09:05:35,1.171,3.0,1.721,0.019
04/06/2023,09:06:34,1.179,3.0,1.741,0.02
04/06/2023,09:07:34,1.182,3.0,1.761,0.02
04/06/2023,09:08:35,1.190,3.0,1.78,0.019
04/06/2023,09:09:34,1.197,3.0,1.8,0.02
04/06/2023,09:10:34,1.216,3.0,1.821,0.021
04/06/2023,09:11:35,1.223,3.0,1.841,0.02
04/06/2023,09:12:34,1.226,3.0,1.861,0.02
04/06/2023,09:13:34,1.236,3.0,1.882,0.021
04/06/2023,09:14:35,1.244,3.0,1.902,0.02
04/06/2023,09:15:35,1.252,3.0,1.923,0.021
04/06/2023,09:16:34,1.264,3.0,1.944,0.021
04/06/2023,09:17:34,1.271,3.0,1.965,0.021
04/06/2023,09:18:35,1.280,3.0,1.987,0.022
04/06/2023,09:19:35,1.285,3.0,2.008,0.021
04/06/2023,09:20:34,1.293,3.0,2.03,0.022
04/06/2023,09:21:34,1.298,3.0,2.051,0.021
04/06/2023,09:22:34,1.305,3.0,2.073,0.022
04/06/2023,09:23:35,1.312,3.0,2.095,0.022
04/06/2023,09:24:34,1.320,3.0,2.117,0.022
04/06/2023,09:25:35,1.329,3.0,2.139,0.022
04/06/2023,09:26:34,1.344,3.0,2.161,0.022
04/06/2023,09:27:35,1.345,3.0,2.183,0.022
04/06/2023,09:28:34,1.361,3.0,2.206,0.023
04/06/2023,09:29:34,1.369,3.0,2.228,0.022
04/06/2023,09:30:34,1.375,3.0,2.251,0.023
04/06/2023,09:31:35,1.384,3.0,2.274,0.023
04/06/2023,09:32:34,1.387,3.0,2.297,0.023
04/06/2023,09:33:34,1.387,3.0,2.32,0.023
04/06/2023,09:34:34,1.402,3.0,2.344,0.024
04/06/2023,09:35:34,1.404,3.0,2.367,0.023
04/06/2023,09:36:34,1.414,3.0,2.391,0.024
04/06/2023,09:37:34,1.430,3.0,2.414,0.023
04/06/2023,09:38:35,1.432,3.0,2.438,0.024
04/06/2023,09:39:34,1.436,3.0,2.462,0.024
04/06/2023,09:40:35,1.452,3.0,2.486,0.024
04/06/2023,09:41:34,1.455,3.0,2.51,0.024
04/06/2023,09:42:35,1.464,3.0,2.535,0.025
04/06/2023,09:43:35,1.465,3.0,2.559,0.024
04/06/2023,09:44:34,1.473,3.0,2.584,0.025
04/06/2023,09:45:34,1.481,3.0,2.608,0.024
04/06/2023,09:46:35,1.494,3.0,2.633,0.025
04/06/2023,09:47:34,1.493,3.0,2.658,0.025
04/06/2023,09:48:34,1.504,3.0,2.683,0.025
04/06/2023,09:49:34,1.506,3.0,2.708,0.025
04/06/2023,09:50:35,1.512,3.0,2.733,0.025
04/06/2023,09:51:35,1.522,4.0,2.758,0.025
04/06/2023,09:52:34,1.529,4.0,2.784,0.026
04/06/2023,09:53:34,1.549,4.0,2.81,0.026
04/06/2023,09:54:34,1.547,4.0,2.835,0.025
04/06/2023,09:55:35,1.557,4.0,2.861,0.026
04/06/2023,09:56:34,1.562,4.0,2.887,0.026
04/06/2023,09:57:34,1.576,4.0,2.913,0.026
04/06/2023,09:58:34,1.584,4.0,2.94,0.027